Weather in Necochea

Argentina     38°33′11″S   58°44′05″W
temp.,
°C
wind,
m/s
gust,
m/s
humid.,
%
clouds,
%
prec.,
mm/h
press.,
hPa
HPBL,
m
16 april, fri
fri1600:00+15wnw33860 0.0 101345
03:00+14wnw37910 0.0 1013134
06:00+14w35954 0.0 1013102
09:00+16w359121 0.0 1015196
12:00+22sw34664 0.0 1015651
15:00+22s436199 0.0 1014694
18:00+18sse3481100 0.0 1015112
21:00+16e33910 0.0 101653
17 april, sat
sat1700:00+15nne22920 0.0 101636
03:00+15ne229225 0.0 101732
06:00+15ne2393100 0.0 101741
09:00+17nne3484100 0.0 1019153
12:00+23nne346087 0.0 1018698
15:00+25n345020 0.0 10171363
18:00+22ne33630 0.0 101642
21:00+18nne49796 0.0 1017170
18 april, sun
sun1800:00+17nne4989100 0.0 1018186
03:00+16n41194100 0.0 1018259
06:00+15nne4119496 0.0 1018258
09:00+17n51184100 0.0 1019334
12:00+23n6963100 0.0 1018798
15:00+25nnw6849100 0.0 10161289
18:00+22n496599 0.0 1016260
21:00+19n498081 0.0 1017188
19 april, mon
mon1900:00+18nne6138494 0.0 1017373
03:00+17n513807 0.0 1017365
06:00+16n413905 0.0 1017336
09:00+18n613802 0.0 1018436
12:00+24n810544 0.0 1018889
15:00+25n811450 0.0 10161258
18:00+22nne712560 0.0 1016685
21:00+18nne715695 0.0 1017526
20 april, tue
tue2000:00+16nne716865 0.0 1018531
03:00+15nne615945 0.0 1018516
06:00+16nne6149157 0.0 1018576
09:00+17nne614830 0.0 1020647
12:00+22nne810551 0.0 10201064
15:00+24nne810470 0.0 10181332
18:00+21ne711610 0.0 1017674
21:00+17ne613770 0.0 1019692